VK6CV Weather Reports


time (UTC)temp
C
wind
direction
speed
KPH
gust
KPH
rain 1hr
cm
rain 24hr
cm
rain mn
cm
humidity
%
barometer
mb
20260505225554 12 0 0.0 4.8 0.00 0.00 0.00 79 1028.0
20260505225052 12 124 0.0 6.4 0.00 0.00 0.00 79 1028.0
20260505224558 12 0 0.0 6.4 0.00 0.00 0.00 79 1027.7
20260505224057 12 124 0.0 4.8 0.00 0.00 0.00 79 1027.7
20260505223552 12 124 1.6 4.8 0.00 0.00 0.00 79 1027.8
20260505223056 12 124 0.0 3.2 0.00 0.00 0.00 78 1027.7
20260505222552 12 0 0.0 3.2 0.00 0.00 0.00 78 1027.5
20260505222052 12 0 0.0 4.8 0.00 0.00 0.00 77 1027.5
20260505221600 12 0 1.6 9.7 0.00 0.00 0.00 77 1027.4
20260505221053 12 0 0.0 9.7 0.00 0.00 0.00 77 1027.3
20260505220552 12 0 1.6 9.7 0.00 0.00 0.00 78 1027.3
20260505220106 12 0 3.2 6.4 0.00 0.00 0.00 78 1027.4
20260505215553 12 124 1.6 6.4 0.00 0.00 0.00 78 1027.4
20260505215052 12 124 1.6 4.8 0.00 0.00 0.00 78 1027.2
20260505214605 12 124 1.6 6.4 0.00 0.00 0.00 78 1027.2
20260505214052 12 124 3.2 6.4 0.00 0.00 0.00 78 1027.2
20260505213552 12 124 1.6 4.8 0.00 0.00 0.00 77 1027.1
20260505213051 12 124 1.6 9.7 0.00 0.00 0.00 77 1027.3
20260505212552 12 124 1.6 9.7 0.00 0.00 0.00 76 1027.2
20260505212053 12 124 3.2 8.0 0.00 0.00 0.00 76 1027.1
20260505211629 12 124 1.6 6.4 0.00 0.00 0.00 76 1027.0
20260505211056 12 124 1.6 6.4 0.00 0.00 0.00 75 1027.1
20260505210552 13 0 0.0 0.0 0.00 0.00 0.00 75 1027.0
20260505210053 13 0 0.0 4.8 0.00 0.00 0.00 75 1026.9
20260505205552 13 0 0.0 4.8 0.00 0.00 0.00 75 1026.8
20260505205051 13 0 0.0 4.8 0.00 0.00 0.00 75 1026.7
20260505204604 13 0 0.0 4.8 0.00 0.00 0.00 75 1026.9
20260505204052 13 0 1.6 4.8 0.00 0.00 0.00 74 1026.8
20260505203551 13 124 0.0 9.7 0.00 0.00 0.00 74 1026.8
20260505203056 13 124 0.0 9.7 0.00 0.00 0.00 75 1026.8
20260505202553 13 124 3.2 6.4 0.00 0.00 0.00 75 1026.8
20260505202053 13 124 1.6 6.4 0.00 0.00 0.00 74 1026.8
20260505201557 13 125 1.6 12.9 0.00 0.00 0.00 74 1026.7
20260505201052 13 125 3.2 12.9 0.00 0.00 0.00 74 1026.8
20260505200554 13 125 3.2 9.7 0.00 0.00 0.00 74 1026.8
20260505200054 13 125 1.6 9.7 0.00 0.00 0.00 74 1026.7
20260505195552 13 0 3.2 8.0 0.00 0.00 0.00 74 1026.8
20260505195055 13 125 3.2 6.4 0.00 0.00 0.00 73 1026.7
20260505194558 13 0 1.6 4.8 0.00 0.00 0.00 73 1026.8
20260505194053 13 0 0.0 3.2 0.00 0.00 0.00 72 1026.8
20260505193552 13 0 0.0 6.4 0.00 0.00 0.00 72 1026.8
20260505193055 13 0 0.0 6.4 0.00 0.00 0.00 71 1026.6
20260505192554 13 125 1.6 6.4 0.00 0.00 0.00 71 1026.7
20260505192052 13 126 1.6 6.4 0.00 0.00 0.00 71 1026.7
20260505191555 13 126 1.6 8.0 0.00 0.00 0.00 70 1026.6
20260505191051 14 127 1.6 8.0 0.00 0.00 0.00 70 1026.7
20260505190554 14 129 3.2 8.0 0.00 0.00 0.00 69 1026.6
20260505190103 14 130 3.2 11.3 0.00 0.00 0.00 69 1026.4
20260505185551 14 131 3.2 11.3 0.00 0.00 0.00 69 1026.5
20260505185052 14 132 4.8 11.3 0.00 0.00 0.00 69 1026.4
20260505184557 14 133 3.2 11.3 0.00 0.00 0.00 68 1026.4
20260505184053 15 134 3.2 11.3 0.00 0.00 0.00 67 1026.6
20260505183553 15 133 3.2 8.0 0.00 0.00 0.00 68 1026.6
20260505183052 15 133 4.8 8.0 0.00 0.00 0.00 67 1026.6
20260505182553 15 134 1.6 6.4 0.00 0.00 0.00 67 1026.5
20260505182053 15 135 3.2 8.0 0.00 0.00 0.00 67 1026.4
20260505181627 15 135 3.2 11.3 0.00 0.00 0.00 67 1026.5
20260505181055 15 135 1.6 11.3 0.00 0.00 0.00 66 1026.5
20260505180552 15 134 1.6 8.0 0.00 0.00 0.00 66 1026.5
20260505180105 15 135 3.2 11.3 0.00 0.00 0.00 66 1026.5
20260505175553 15 136 3.2 11.3 0.00 0.00 0.00 65 1026.4
20260505175052 15 136 4.8 11.3 0.00 0.00 0.00 65 1026.3
20260505174552 15 136 3.2 8.0 0.00 0.00 0.00 65 1026.5
20260505174051 15 135 3.2 12.9 0.00 0.00 0.00 65 1026.4
20260505173552 15 132 1.6 12.9 0.00 0.00 0.00 64 1026.4
20260505173052 15 130 4.8 12.9 0.00 0.00 0.00 64 1026.3
20260505172552 15 130 4.8 14.5 0.00 0.00 0.00 64 1026.3
20260505172051 15 131 4.8 14.5 0.00 0.00 0.00 64 1026.3
20260505171558 15 131 3.2 14.5 0.00 0.00 0.00 64 1026.2
20260505171053 16 131 4.8 16.1 0.00 0.00 0.00 64 1026.2
20260505170552 15 133 4.8 20.9 0.00 0.00 0.00 64 1026.2
20260505170052 15 122 8.0 20.9 0.00 0.00 0.00 65 1026.2
20260505165552 15 128 4.8 11.3 0.00 0.00 0.00 65 1026.1
20260505165052 15 130 4.8 11.3 0.00 0.00 0.00 65 1026.3
20260505164553 15 131 3.2 11.3 0.00 0.00 0.00 66 1026.2
20260505164052 15 131 3.2 11.3 0.00 0.00 0.00 65 1026.2
20260505163555 15 130 3.2 11.3 0.00 0.00 0.00 65 1026.2
20260505163054 15 129 3.2 11.3 0.00 0.00 0.00 65 1026.1
20260505162551 15 129 4.8 12.9 0.00 0.00 0.00 65 1026.1
20260505162051 15 129 4.8 14.5 0.00 0.00 0.00 64 1026.1
20260505161554 15 128 4.8 14.5 0.00 0.00 0.00 64 1026.0
20260505161052 15 130 4.8 12.9 0.00 0.00 0.00 64 1026.0
20260505160552 15 130 4.8 12.9 0.00 0.00 0.00 64 1026.0
20260505153057 14 184 1.6 6.4 0.00 0.00 0.00 70 1026.1
20260505152552 14 184 1.6 9.7 0.00 0.00 0.00 71 1026.1
20260505152050 14 184 3.2 9.7 0.00 0.00 0.00 72 1026.1
20260505151602 14 182 4.8 9.7 0.00 0.00 0.00 73 1026.1
20260505151057 13 189 3.2 9.7 0.00 0.00 0.00 74 1026.0
20260505150552 13 198 1.6 6.4 0.00 0.00 0.00 74 1026.0
20260505140552 15 0 0.0 8.0 0.00 0.00 0.00 75 1026.2
20260505124556 16 199 3.2 8.0 0.00 0.00 0.00 72 1026.0
20260505124054 16 199 1.6 8.0 0.00 0.00 0.00 72 1026.0
20260505123552 16 199 1.6 8.0 0.00 0.00 0.00 72 1026.0
20260505123100 16 200 1.6 8.0 0.00 0.00 0.00 72 1025.9
20260505122552 16 0 1.6 6.4 0.00 0.00 0.00 71 1026.0
20260505122053 16 0 0.0 8.0 0.00 0.00 0.00 71 1026.0
20260505121557 16 200 1.6 8.0 0.00 0.00 0.00 71 1026.0
20260505121052 16 200 0.0 6.4 0.00 0.00 0.00 71 1025.9
20260505120554 16 200 0.0 6.4 0.00 0.00 0.00 71 1025.9
20260505120111 16 200 1.6 6.4 0.00 0.00 0.00 71 1025.9
20260505115552 16 0 1.6 6.4 0.00 0.00 0.00 71 1025.9
20260505115051 16 200 0.0 6.4 0.00 0.00 0.00 71 1025.9
20260505114556 16 0 1.6 6.4 0.00 0.00 0.00 70 1025.9
20260505114054 16 200 0.0 6.4 0.00 0.00 0.00 70 1025.8
20260505113555 16 200 1.6 6.4 0.00 0.00 0.00 70 1025.7
20260505113108 16 200 1.6 6.4 0.00 0.00 0.00 70 1025.9
20260505112552 16 200 1.6 6.4 0.00 0.00 0.00 70 1025.8
20260505112052 17 0 1.6 6.4 0.00 0.00 0.00 70 1025.8
20260505111553 17 200 0.0 6.4 0.00 0.00 0.00 69 1025.8
20260505111052 17 200 1.6 6.4 0.00 0.00 0.00 69 1025.7
20260505110555 17 200 1.6 8.0 0.00 0.00 0.00 69 1025.8
20260505110109 17 0 1.6 8.0 0.00 0.00 0.00 69 1025.6
20260505102055 18 200 1.6 6.4 0.00 0.00 0.00 67 1025.2
20260505101604 18 0 1.6 4.8 0.00 0.00 0.00 67 1025.2
20260505101052 18 200 1.6 6.4 0.00 0.00 0.00 67 1025.0
20260505100552 18 200 1.6 6.4 0.00 0.00 0.00 66 1025.0
20260505100058 18 199 1.6 6.4 0.00 0.00 0.00 66 1025.0
20260505095552 18 199 1.6 6.4 0.00 0.00 0.00 65 1024.9
20260505095051 19 199 1.6 9.7 0.00 0.00 0.00 64 1025.0
20260505094556 19 0 3.2 9.7 0.00 0.00 0.00 64 1024.9
20260505094052 19 205 1.6 8.0 0.00 0.00 0.00 63 1024.9
20260505093552 20 205 1.6 8.0 0.00 0.00 0.00 63 1024.8
20260505093100 20 205 3.2 9.7 0.00 0.00 0.00 62 1024.8
20260505092553 20 203 3.2 11.3 0.00 0.00 0.00 62 1024.8
20260505092053 20 209 3.2 11.3 0.00 0.00 0.00 61 1024.6
20260505091600 20 209 4.8 11.3 0.00 0.00 0.00 61 1024.6
20260505091051 20 190 4.8 11.3 0.00 0.00 0.00 60 1024.6
20260505090551 20 198 3.2 11.3 0.00 0.00 0.00 59 1024.6
20260505090100 21 210 3.2 11.3 0.00 0.00 0.00 59 1024.6
20260505085552 21 194 1.6 9.7 0.00 0.00 0.00 58 1024.6
20260505085053 21 194 4.8 9.7 0.00 0.00 0.00 57 1024.7
20260505084603 21 234 3.2 9.7 0.00 0.00 0.00 56 1024.5
20260505084054 22 202 1.6 12.9 0.00 0.00 0.00 56 1024.5
20260505083551 22 197 3.2 12.9 0.00 0.00 0.00 55 1024.6
20260505083109 22 206 4.8 12.9 0.00 0.00 0.00 54 1024.5
20260505082556 22 190 3.2 9.7 0.00 0.00 0.00 53 1024.5
20260505082052 22 199 3.2 9.7 0.00 0.00 0.00 53 1024.4
20260505081600 22 205 3.2 12.9 0.00 0.00 0.00 52 1024.5
20260505081052 22 214 3.2 12.9 0.00 0.00 0.00 51 1024.4
20260505080551 22 219 4.8 12.9 0.00 0.00 0.00 51 1024.4
20260505080055 22 213 4.8 12.9 0.00 0.00 0.00 52 1024.4
20260505075551 23 232 1.6 9.7 0.00 0.00 0.00 52 1024.4
20260505075055 23 200 3.2 9.7 0.00 0.00 0.00 52 1024.3
20260505074553 23 234 3.2 12.9 0.00 0.00 0.00 52 1024.3
20260505074052 23 254 3.2 12.9 0.00 0.00 0.00 54 1024.3
20260505073551 23 251 3.2 11.3 0.00 0.00 0.00 53 1024.3
20260505073059 23 246 3.2 11.3 0.00 0.00 0.00 50 1024.3
20260505072552 23 243 3.2 11.3 0.00 0.00 0.00 51 1024.4
20260505072052 23 260 1.6 11.3 0.00 0.00 0.00 51 1024.3
20260505071553 23 259 1.6 14.5 0.00 0.00 0.00 51 1024.3
20260505071052 23 261 3.2 14.5 0.00 0.00 0.00 51 1024.4
20260505070552 24 240 3.2 12.9 0.00 0.00 0.00 50 1024.3
20260505070106 24 242 3.2 12.9 0.00 0.00 0.00 49 1024.4
20260505065551 24 263 3.2 9.7 0.00 0.00 0.00 47 1024.4
20260505065113 23 203 3.2 12.9 0.00 0.00 0.00 47 1024.3
20260505064629 23 202 3.2 12.9 0.00 0.00 0.00 45 1024.3
20260505064052 23 151 4.8 12.9 0.00 0.00 0.00 43 1024.3
20260505063553 23 167 3.2 9.7 0.00 0.00 0.00 42 1024.3
20260505063101 24 168 3.2 9.7 0.00 0.00 0.00 42 1024.3
20260505062552 24 170 1.6 12.9 0.00 0.00 0.00 42 1024.3
20260505062053 24 169 4.8 12.9 0.00 0.00 0.00 42 1024.3
20260505061557 25 244 1.6 8.0 0.00 0.00 0.00 41 1024.3
20260505061052 25 264 1.6 6.4 0.00 0.00 0.00 42 1024.4
20260505060553 24 265 1.6 6.4 0.00 0.00 0.00 44 1024.4
20260505060101 24 0 1.6 6.4 0.00 0.00 0.00 44 1024.2
20260505055553 24 264 1.6 9.7 0.00 0.00 0.00 44 1024.3
20260505055053 24 265 1.6 11.3 0.00 0.00 0.00 44 1024.4
20260505054553 24 265 3.2 11.3 0.00 0.00 0.00 44 1024.3
20260505054052 25 263 3.2 11.3 0.00 0.00 0.00 44 1024.4
20260505053552 24 266 1.6 9.7 0.00 0.00 0.00 45 1024.4
20260505053059 24 266 1.6 11.3 0.00 0.00 0.00 46 1024.4
20260505052551 24 265 3.2 11.3 0.00 0.00 0.00 46 1024.5
20260505052051 24 265 1.6 11.3 0.00 0.00 0.00 47 1024.5
20260505051600 23 275 1.6 6.4 0.00 0.00 0.00 47 1024.6
20260505051053 23 276 1.6 6.4 0.00 0.00 0.00 47 1024.7
20260505050553 23 276 1.6 9.7 0.00 0.00 0.00 47 1024.8
20260505041604 21 342 3.2 9.7 0.00 0.00 0.00 52 1025.5
20260505041052 21 342 4.8 9.7 0.00 0.00 0.00 52 1025.6
20260505040552 21 343 1.6 8.0 0.00 0.00 0.00 53 1025.6
20260505040106 20 343 1.6 8.0 0.00 0.00 0.00 54 1025.6
20260505035551 20 343 3.2 12.9 0.00 0.00 0.00 53 1025.7
20260505035051 20 344 3.2 12.9 0.00 0.00 0.00 53 1025.7
20260505034615 20 342 4.8 12.9 0.00 0.00 0.00 53 1025.7
20260505034052 20 69 4.8 12.9 0.00 0.00 0.00 54 1025.8
20260505033552 20 350 4.8 14.5 0.00 0.00 0.00 55 1026.0
20260505033102 20 38 3.2 14.5 0.00 0.00 0.00 54 1025.9
20260505032552 20 40 4.8 14.5 0.00 0.00 0.00 54 1026.0
20260505032051 20 73 4.8 9.7 0.00 0.00 0.00 54 1026.0
20260505031553 20 18 3.2 8.0 0.00 0.00 0.00 55 1025.9
20260505031052 20 17 3.2 8.0 0.00 0.00 0.00 55 1026.1
20260505030554 20 69 1.6 6.4 0.00 0.00 0.00 57 1026.0
20260505030127 19 69 0.0 16.1 0.00 0.00 0.00 58 1026.1
20260505025552 19 69 3.2 16.1 0.00 0.00 0.00 57 1026.2
20260505025052 19 22 1.6 9.7 0.00 0.00 0.00 58 1026.1
20260505024611 18 22 3.2 9.7 0.00 0.00 0.00 58 1026.1
20260505024050 18 22 3.2 8.0 0.00 0.00 0.00 59 1026.2
20260505023551 18 24 3.2 9.7 0.00 0.00 0.00 60 1026.3
20260505023056 18 15 3.2 9.7 0.00 0.00 0.00 60 1026.3
20260505022552 18 98 4.8 9.7 0.00 0.00 0.00 60 1026.5
20260505022051 18 69 4.8 9.7 0.00 0.00 0.00 60 1026.4
20260505021609 18 352 4.8 9.7 0.00 0.00 0.00 60 1026.5
20260505021052 18 61 3.2 8.0 0.00 0.00 0.00 61 1026.4
20260505020552 17 80 3.2 12.9 0.00 0.00 0.00 62 1026.5
20260505020107 17 55 4.8 12.9 0.00 0.00 0.00 62 1026.4
20260505015553 17 75 4.8 12.9 0.00 0.00 0.00 63 1026.4
20260505015055 17 86 3.2 12.9 0.00 0.00 0.00 65 1026.4
20260505014609 17 86 3.2 11.3 0.00 0.00 0.00 66 1026.6
20260505014052 16 86 3.2 11.3 0.00 0.00 0.00 66 1026.4
20260505013551 16 86 4.8 12.9 0.00 0.00 0.00 66 1026.4
20260505013053 16 86 4.8 12.9 0.00 0.00 0.00 67 1026.4
20260505012552 16 86 4.8 12.9 0.00 0.00 0.00 68 1026.4
20260505012052 15 86 4.8 12.9 0.00 0.00 0.00 68 1026.6
20260505011559 15 90 4.8 16.1 0.00 0.00 0.00 69 1026.5
20260505011052 15 89 6.4 16.1 0.00 0.00 0.00 69 1026.5
20260505010552 15 90 8.0 16.1 0.00 0.00 0.00 70 1026.5
20260505010108 15 90 6.4 14.5 0.00 0.00 0.00 70 1026.5
20260505005552 15 105 4.8 14.5 0.00 0.00 0.00 71 1026.4
20260505005052 15 56 4.8 14.5 0.00 0.00 0.00 72 1026.6
20260505004632 14 89 4.8 11.3 0.00 0.00 0.00 73 1026.6
20260505004051 14 103 4.8 14.5 0.00 0.00 0.00 73 1026.6
20260505003552 14 106 6.4 14.5 0.00 0.00 0.00 73 1026.6
20260505003059 13 80 4.8 14.5 0.00 0.00 0.00 75 1026.5
20260505002552 13 90 8.0 14.5 0.00 0.00 0.00 74 1026.5
20260505002052 13 57 4.8 11.3 0.00 0.00 0.00 74 1026.3
20260505001551 13 63 3.2 17.7 0.00 0.00 0.00 75 1026.3
20260505001051 13 56 6.4 17.7 0.00 0.00 0.00 75 1026.3
20260505000551 13 93 6.4 14.5 0.00 0.00 0.00 76 1026.2
20260505000109 13 77 6.4 14.5 0.00 0.00 0.00 76 1026.1
20260504235552 13 53 6.4 14.5 0.00 0.00 0.00 77 1026.0
20260504235052 12 65 6.4 17.7 0.00 0.00 0.00 78 1025.9
20260504234552 12 27 6.4 17.7 0.00 0.00 0.00 78 1025.7
20260504234051 12 66 9.7 17.7 0.00 0.00 0.00 79 1025.8
20260504233552 12 84 6.4 17.7 0.00 0.00 0.00 79 1025.8
20260504233050 12 74 4.8 11.3 0.00 0.00 0.00 80 1025.7
20260504232553 12 77 4.8 11.3 0.00 0.00 0.00 81 1025.8
20260504232051 12 63 3.2 11.3 0.00 0.00 0.00 82 1025.7
20260504231620 11 142 4.8 8.0 0.00 0.00 0.00 83 1025.7
20260504231052 11 141 1.6 8.0 0.00 0.00 0.00 84 1025.7
20260504230552 11 141 1.6 8.0 0.00 0.00 0.00 84 1025.6
20260504230052 11 0 0.0 4.8 0.00 0.00 0.00 84 1025.5